Location: Kuppenheim
(48.8299°N, 8.2568°E)
Time: 00:50:15
(UTC+00:00)

ERBS - Pass Details

Date: 30 October 2021
Orbit: 394 x 407 km, 57.0° (Epoch: 28 November)

Event Time Altitude Azimuth Distance (km) Brightness Sun altitude
Exits shadow 02:59:33 10° 74° (ENE) 1,441 5.8 -31.7°
Drops below altitude 10° 02:59:37 10° 73° (ENE) 1,463 5.9 -31.7°
Sets 03:01:52 0° 61° (ENE) 2,331 7.1 -31.4°
